New York, NY

4:01 PM EDT on August 25, 2016 (GMT -0400)
Central Park

Weather History for KNYC - January, 2002

Change the Weather History Date:

Wednesday, January 2, 2002

  Actual Average Record
Temperature  
Mean Temperature 30 °F 33 °F  
Max Temperature 36 °F 39 °F 68 °F (1876)
Min Temperature 23 °F 28 °F 2 °F (1918)
Degree Days  
Heating Degree Days 36 32  
Month to date heating degree days 64  
Since 1 July heating degree days 1749  
Cooling Degree Days 0 0  
Month to date cooling degree days 0  
Year to date cooling degree days 0  
Moisture  
Dew Point 15 °F    
Average Humidity 56    
Maximum Humidity 65    
Minimum Humidity 44    
Precipitation  
Precipitation 0.00 in 0.12 in 1.92 in (1925)
Month to date precipitation 0.24  
Year to date precipitation 0.24  
Snow  
Snow 0.00 in 0.20 in 11.50 in (1925)
Month to date snowfall 0.4  
Since 1 July snowfall 5.5  
Snow Depth -    
Sea Level Pressure  
Sea Level Pressure 30.21 in    
Wind  
Wind Speed 8 mph (WNW)    
Max Wind Speed 13 mph    
Max Gust Speed 21 mph    
Visibility 10 miles    
Events      
T = Trace of Precipitation, MM = Missing Value Source: NWS Daily Summary

Daily Weather History Graph

Daily Weather History Graph

Search for Another Location

Airport or City:

Trip Planner

Search our weather history database for the weather conditions in past years. The results will help you decide how hot, cold, wet, or windy it might be!

Date:

Astronomy

Jan. 02, 2002 Rise Set
Actual Time 7:20 AM EST 4:39 PM EST
Civil Twilight 6:49 AM EST 5:10 PM EST
Nautical Twilight 6:15 AM EST 5:45 PM EST
Astronomical Twilight 5:41 AM EST 6:18 PM EST
Moon 8:30 PM EST (1/2) 10:03 AM EST (1/2)
Length of Visible Light 10h 21m
Length of Day
9h 19m
Waning Gibbous, 86% of the Moon is Illuminated
Jan 2
Waning Gibbous
Jan 5
Last Quarter
Jan 13
New
Jan 21
First Quarter
Jan 28
Full

Hourly Weather History & Observations

Time (EST) Temp. Windchill Dew Point Humidity Pressure Visibility Wind Dir Wind Speed Gust Speed Precip Events Conditions
12:51 AM 25.0 °F 14.8 °F 12.0 °F 58% 30.22 in 10.0 mi NW 10.4 mph 17.3 mph N/A   Clear
1:51 AM 25.0 °F 14.8 °F 12.0 °F 58% 30.21 in 10.0 mi WNW 10.4 mph 20.7 mph N/A   Clear
2:51 AM 24.1 °F 16.0 °F 12.9 °F 62% 30.22 in 10.0 mi Variable 6.9 mph - N/A   Clear
3:51 AM 24.1 °F 16.0 °F 12.9 °F 62% 30.24 in 10.0 mi Variable 6.9 mph - N/A   Clear
4:51 AM 23.0 °F 14.7 °F 12.9 °F 65% 30.25 in 10.0 mi Variable 6.9 mph - N/A   Clear
5:51 AM 24.1 °F 19.7 °F 12.9 °F 62% 30.22 in 10.0 mi WNW 3.5 mph 17.3 mph N/A   Clear
6:51 AM 24.1 °F 16.0 °F 14.0 °F 65% 30.24 in 10.0 mi NW 6.9 mph - N/A   Clear
7:51 AM 25.0 °F 18.1 °F 14.0 °F 63% 30.25 in 10.0 mi WNW 5.8 mph 18.4 mph N/A   Clear
8:51 AM 26.1 °F 18.4 °F 15.1 °F 63% 30.27 in 10.0 mi WNW 6.9 mph - N/A   Partly Cloudy
9:51 AM 27.0 °F 18.0 °F 15.1 °F 61% 30.28 in 10.0 mi WNW 9.2 mph - N/A   Partly Cloudy
10:51 AM 28.9 °F 21.1 °F 15.1 °F 56% 30.27 in 10.0 mi West 8.1 mph - N/A   Partly Cloudy
11:51 AM 32.0 °F 23.0 °F 15.1 °F 50% 30.26 in 10.0 mi WNW 11.5 mph - N/A   Partly Cloudy
12:51 PM 34.0 °F 27.2 °F 16.0 °F 48% 30.21 in 10.0 mi NW 8.1 mph - N/A   Partly Cloudy
1:51 PM 36.0 °F 27.5 °F 16.0 °F 44% 30.18 in 10.0 mi NW 12.7 mph 16.1 mph N/A   Scattered Clouds
2:51 PM 36.0 °F 28.0 °F 16.0 °F 44% 30.18 in 10.0 mi NW 11.5 mph 17.3 mph N/A   Partly Cloudy
3:51 PM 36.0 °F 28.5 °F 16.0 °F 44% 30.17 in 10.0 mi West 10.4 mph - N/A   Partly Cloudy
4:51 PM 34.0 °F 26.6 °F 17.1 °F 50% 30.18 in 10.0 mi WNW 9.2 mph - N/A   Partly Cloudy
5:51 PM 33.1 °F 24.9 °F 17.1 °F 52% 30.19 in 10.0 mi WNW 10.4 mph - N/A   Partly Cloudy
6:51 PM 32.0 °F 26.4 °F 17.1 °F 54% 30.20 in 10.0 mi WNW 5.8 mph - N/A   Scattered Clouds
7:51 PM 32.0 °F 26.4 °F 17.1 °F 54% 30.19 in 10.0 mi WNW 5.8 mph - N/A   Mostly Cloudy
8:51 PM 32.0 °F 26.4 °F 17.1 °F 54% 30.17 in 10.0 mi WNW 5.8 mph - N/A   Mostly Cloudy
9:51 PM 30.9 °F 25.2 °F 17.1 °F 57% 30.16 in 10.0 mi WNW 5.8 mph - N/A   Clear
10:51 PM 30.9 °F 26.2 °F 17.1 °F 57% 30.14 in 10.0 mi WNW 4.6 mph - N/A   Clear
11:51 PM 30.0 °F 24.1 °F 17.1 °F 59% 30.14 in 10.0 mi WNW 5.8 mph - N/A   Clear